This is the latest recevied weather packets stored in our database for station/object K0QJ. If no packets are shown the sender has not sent any weather packets the latest 10 day(s).
| Time | Temp. | Humidity | Pressure | Rain* | Wind** | Luminosity | Snow |
|---|---|---|---|---|---|---|---|
| 1778281615 | 17.22° C | 82% | 1005.5 hPa | 0 mm | - | 44 W/m² | - |
| 1778281311 | 17.22° C | 81% | 1005.8 hPa | 0 mm | - | 37 W/m² | - |
| 1778281009 | 16.67° C | 82% | 1006 hPa | 0 mm | - | 34 W/m² | - |
| 1778280705 | 16.67° C | 84% | 1006 hPa | 0 mm | - | 44 W/m² | - |
| 1778280403 | 16.67° C | 84% | 1005.6 hPa | 0 mm | - | 115 W/m² | - |
| 1778280100 | 16.67° C | 86% | 1005.4 hPa | 0 mm | - | 59 W/m² | - |
| 1778279798 | 16.67° C | 87% | 1005.7 hPa | 0 mm | - | 75 W/m² | - |
| 1778279495 | 16.67° C | 87% | 1005.5 hPa | 0 mm | - | 112 W/m² | - |
| 1778279192 | 16.11° C | 88% | 1005.7 hPa | 0 mm | - | 138 W/m² | - |
| 1778278889 | 16.11° C | 88% | 1005.9 hPa | 0 mm | - | 181 W/m² | - |
| 1778278585 | 16.11° C | 87% | 1006.4 hPa | 0 mm | - | 121 W/m² | - |
| 1778278281 | 16.11° C | 87% | 1006.5 hPa | 0 mm | - | 83 W/m² | - |
| 1778277978 | 16.11° C | 87% | 1007 hPa | 0 mm | - | 54 W/m² | - |
| 1778277675 | 16.11° C | 87% | 1006.8 hPa | 0 mm | - | 79 W/m² | - |
| 1778277371 | 16.11° C | 87% | 1007 hPa | 0 mm | - | 144 W/m² | - |
| 1778277068 | 16.67° C | 87% | 1007.3 hPa | 0 mm | - | 144 W/m² | - |
| 1778276765 | 16.11° C | 86% | 1007.1 hPa | 0 mm | - | 83 W/m² | - |
| 1778276462 | 16.11° C | 87% | 1007 hPa | 0 mm | - | 88 W/m² | - |
| 1778276159 | 16.11° C | 87% | 1007.4 hPa | 0 mm | - | 82 W/m² | - |
| 1778275855 | 16.67° C | 86% | 1007.2 hPa | 0 mm | - | 94 W/m² | - |
| 1778275551 | 16.67° C | 85% | 1007.5 hPa | 0 mm | - | 146 W/m² | - |
| 1778275248 | 17.22° C | 84% | 1007.8 hPa | 0 mm | - | 108 W/m² | - |
| 1778274943 | 17.22° C | 82% | 1007.8 hPa | 1.78 mm | - | 61 W/m² | - |
| 1778274640 | 17.78° C | 80% | 1007.7 hPa | 0 mm | - | 76 W/m² | - |
| 1778274336 | 18.33° C | 76% | 1007.3 hPa | 0 mm | - | 101 W/m² | - |
* Rain latest hour (hover to see other rain measurements)
** Current wind speed in m/s (hover to see current wind gust speed)